Location: Joplin, MO
(37.0842°N, 94.5133°W)
Time: 17:37:20
(UTC+02:00)

Transit 2A Rocket - Visible Passes

Search period start: 30 March 2023 00:00
Search period end: 09 April 2023 00:00
Orbit: 583 x 916 km, 66.7° (Epoch: 30 March)

Date Brightness Start Highest point End Pass type
(mag) Time Alt. Az. Time Alt. Az. Time Alt. Az.
30 Mar 5.4 03:52:50 10° NNW 03:58:54 74° WSW 04:04:07 12° SSE visible
31 Mar 5.3 03:09:36 10° NNW 03:15:40 66° ENE 03:21:19 10° SE visible
31 Mar 7.7 04:53:50 10° WNW 04:57:33 17° WSW 05:01:08 10° SW visible
01 Apr 7.0 04:09:31 10° NW 04:14:40 31° WSW 04:19:32 10° SSW visible
02 Apr 6.0 03:25:49 10° NW 03:31:40 54° WSW 03:37:07 10° S visible
03 Apr 8.0 04:28:08 10° W 04:30:06 12° W 04:32:02 10° WSW visible
04 Apr 7.6 03:42:52 10° WNW 03:47:18 22° WSW 03:51:31 10° SSW visible
05 Apr 6.8 02:58:51 10° NW 03:04:21 39° WSW 03:09:30 10° S visible
07 Apr 8.0 03:16:32 10° WNW 03:19:51 16° WSW 03:23:03 10° SW visible
